• In Hungary
  • List of Countries
  • For 7 days
  • Water Temperature
  • Satellite Maps
  • Weather Map
  • News
  • Weather Widgets
  • user-avatar
    Login

    Hourly Weather Stepanovka

    Today, 18 July, Wednesday

    Time Temperature Precipitation Wind Pressure Humidity
    00:00 +20°C° 0.7 mm 4 mps 732 mmHg 96%
    01:00 +19°C° 0.3 mm 3 mps 732 mmHg 96%
    02:00 +19°C° 0.3 mm 3 mps 732 mmHg 97%
    03:00 +19°C° 0 mm 3 mps 732 mmHg 97%
    04:00 +19°C° 0.9 mm 3 mps 732 mmHg 97%
    05:00 +19°C° 0.9 mm 3 mps 732 mmHg 97%
    06:00 +19°C° 0.9 mm 3 mps 732 mmHg 97%
    07:00 +20°C° 0.5 mm 3 mps 732 mmHg 95%
    08:00 +20°C° 0.5 mm 3 mps 732 mmHg 94%
    09:00 +20°C° 0 mm 3 mps 732 mmHg 93%
    10:00 +21°C° 0.9 mm 4 mps 732 mmHg 90%
    11:00 +22°C° 0.9 mm 4 mps 732 mmHg 87%
    12:00 +22°C° 0.9 mm 5 mps 732 mmHg 84%
    13:00 +23°C° 1.2 mm 5 mps 732 mmHg 84%
    14:00 +23°C° 1.2 mm 6 mps 733 mmHg 83%
    15:00 +23°C° 0 mm 5 mps 733 mmHg 83%
    16:00 +23°C° 0.6 mm 6 mps 733 mmHg 83%
    17:00 +23°C° 0.6 mm 6 mps 733 mmHg 84%
    18:00 +22°C° 0.6 mm 6 mps 733 mmHg 84%
    19:00 +22°C° 0.4 mm 6 mps 733 mmHg 85%
    20:00 +21°C° 0.4 mm 5 mps 733 mmHg 87%
    21:00 +20°C° 0.4 mm 5 mps 734 mmHg 88%
    22:00 +20°C° 0.4 mm 5 mps 734 mmHg 89%
    23:00 +19°C° 0.4 mm 5 mps 734 mmHg 90%

    Tomorrow, 19 July, Thursday

    Time Temperature Precipitation Wind Pressure Humidity
    00:00 +19°C° 0.4 mm 5 mps 734 mmHg 92%
    01:00 +19°C° 0.2 mm 5 mps 734 mmHg 92%
    02:00 +19°C° 0.2 mm 5 mps 734 mmHg 93%
    03:00 +19°C° 0.2 mm 5 mps 734 mmHg 93%
    04:00 +19°C° 0.4 mm 5 mps 735 mmHg 93%
    05:00 +19°C° 0.4 mm 5 mps 735 mmHg 93%
    06:00 +19°C° 0.4 mm 5 mps 735 mmHg 93%
    07:00 +20°C° 0.3 mm 5 mps 735 mmHg 91%
    08:00 +20°C° 0.3 mm 5 mps 736 mmHg 90%
    09:00 +21°C° 0.3 mm 5 mps 736 mmHg 88%
    10:00 +22°C° 0.1 mm 5 mps 736 mmHg 84%
    11:00 +23°C° 0.1 mm 5 mps 736 mmHg 80%
    12:00 +23°C° 0.1 mm 5 mps 736 mmHg 77%
    13:00 +26°C° 0.1 mm 6 mps 737 mmHg 72%
    14:00 +27°C° 0.1 mm 6 mps 737 mmHg 67%
    15:00 +28°C° 0.1 mm 6 mps 737 mmHg 63%
    16:00 +27°C° 0.6 mm 5 mps 737 mmHg 67%
    17:00 +27°C° 0.6 mm 5 mps 737 mmHg 72%
    18:00 +26°C° 0.6 mm 4 mps 737 mmHg 76%
    19:00 +25°C° 0.3 mm 3 mps 737 mmHg 79%
    20:00 +24°C° 0.3 mm 3 mps 737 mmHg 82%
    21:00 +21°C° 0.3 mm 3 mps 738 mmHg 86%
    22:00 +21°C° 0.1 mm 3 mps 738 mmHg 87%
    23:00 +20°C° 0.1 mm 3 mps 738 mmHg 88%

    Day after tomorrow, 20 July, Friday

    Time Temperature Precipitation Wind Pressure Humidity
    00:00 +20°C° 0.1 mm 3 mps 738 mmHg 89%
    01:00 +20°C° 0 mm 3 mps 738 mmHg 90%
    02:00 +19°C° 0 mm 3 mps 738 mmHg 90%
    03:00 +19°C° 0 mm 3 mps 738 mmHg 91%
    04:00 +19°C° 0.5 mm 3 mps 738 mmHg 91%
    05:00 +20°C° 0.5 mm 3 mps 738 mmHg 91%
    06:00 +20°C° 0.5 mm 3 mps 738 mmHg 91%
    07:00 +21°C° 0.3 mm 3 mps 738 mmHg 86%
    08:00 +23°C° 0.3 mm 4 mps 739 mmHg 81%
    09:00 +26°C° 0.3 mm 4 mps 739 mmHg 76%
    10:00 +27°C° 0.3 mm 4 mps 739 mmHg 72%
    11:00 +28°C° 0.3 mm 4 mps 739 mmHg 68%
    12:00 +29°C° 0.3 mm 4 mps 739 mmHg 65%
    13:00 +29°C° 1 mm 4 mps 739 mmHg 64%
    14:00 +29°C° 1 mm 4 mps 738 mmHg 64%
    15:00 +29°C° 1 mm 4 mps 738 mmHg 63%
    16:00 +28°C° 0.7 mm 3 mps 739 mmHg 67%
    17:00 +28°C° 0.7 mm 3 mps 739 mmHg 72%
    18:00 +27°C° 0.7 mm 2 mps 739 mmHg 76%
    19:00 +26°C° 0.1 mm 2 mps 739 mmHg 79%
    20:00 +25°C° 0.1 mm 2 mps 739 mmHg 81%
    21:00 +23°C° 0.1 mm 2 mps 739 mmHg 84%
    22:00 +23°C° 0.3 mm 2 mps 739 mmHg 86%
    23:00 +21°C° 0.3 mm 2 mps 739 mmHg 88%

    21 July, Saturday

    Time Temperature Precipitation Wind Pressure Humidity
    00:00 +22°C° 0.3 mm 1 mps 739 mmHg 89%
    01:00 +20°C° 0.1 mm 2 mps 739 mmHg 90%
    02:00 +20°C° 0.1 mm 2 mps 739 mmHg 90%
    03:00 +20°C° 0.1 mm 2 mps 739 mmHg 90%
    04:00 +20°C° 0 mm 2 mps 739 mmHg 90%
    05:00 +21°C° 0 mm 2 mps 739 mmHg 89%
    06:00 +21°C° 0 mm 2 mps 739 mmHg 89%
    07:00 +23°C° 0.1 mm 2 mps 739 mmHg 83%
    08:00 +25°C° 0.1 mm 2 mps 739 mmHg 78%
    09:00 +27°C° 0.1 mm 2 mps 740 mmHg 72%
    10:00 +28°C° 0.7 mm 2 mps 740 mmHg 67%
    11:00 +29°C° 0.7 mm 3 mps 740 mmHg 63%
    12:00 +29°C° 0.7 mm 3 mps 740 mmHg 58%
    13:00 +30°C° 0.1 mm 3 mps 740 mmHg 57%
    14:00 +30°C° 0.1 mm 2 mps 740 mmHg 55%
    15:00 +30°C° 0.1 mm 2 mps 740 mmHg 54%
    16:00 +30°C° 0.1 mm 2 mps 740 mmHg 58%
    17:00 +30°C° 0.1 mm 2 mps 740 mmHg 61%
    18:00 +29°C° 0.1 mm 2 mps 740 mmHg 65%
    19:00 +27°C° 0.3 mm 2 mps 740 mmHg 70%
    20:00 +26°C° 0.3 mm 2 mps 740 mmHg 75%
    21:00 +24°C° 0.3 mm 2 mps 740 mmHg 79%
    22:00 +23°C° 0.1 mm 2 mps 740 mmHg 81%
    23:00 +23°C° 0.1 mm 1 mps 739 mmHg 82%

    22 July, Sunday

    Time Temperature Precipitation Wind Pressure Humidity
    00:00 +22°C° 0.1 mm 1 mps 739 mmHg 84%
    01:00 +22°C° 0.1 mm 1 mps 739 mmHg 85%
    02:00 +22°C° 0.1 mm 1 mps 739 mmHg 86%
    03:00 +21°C° 0.1 mm 1 mps 739 mmHg 87%
    04:00 +21°C° 0 mm 2 mps 739 mmHg 87%
    05:00 +21°C° 0 mm 2 mps 740 mmHg 87%
    06:00 +21°C° 0 mm 2 mps 740 mmHg 86%
    07:00 +24°C° 0.3 mm 2 mps 740 mmHg 81%
    08:00 +26°C° 0.3 mm 2 mps 740 mmHg 76%
    09:00 +27°C° 0.3 mm 2 mps 740 mmHg 71%
    10:00 +28°C° 1 mm 2 mps 740 mmHg 66%
    11:00 +29°C° 1 mm 3 mps 739 mmHg 62%
    12:00 +30°C° 1 mm 3 mps 739 mmHg 57%
    13:00 +30°C° 0.9 mm 3 mps 739 mmHg 58%
    14:00 +30°C° 0.9 mm 3 mps 739 mmHg 58%
    15:00 +30°C° 0.9 mm 3 mps 739 mmHg 58%
    16:00 +30°C° 0.3 mm 3 mps 739 mmHg 62%
    17:00 +30°C° 0.3 mm 2 mps 739 mmHg 65%
    18:00 +29°C° 0.3 mm 2 mps 739 mmHg 69%
    19:00 +28°C° 0.2 mm 2 mps 739 mmHg 72%
    20:00 +26°C° 0.2 mm 2 mps 739 mmHg 76%
    21:00 +24°C° 0.2 mm 2 mps 739 mmHg 80%
    22:00 +24°C° 0.2 mm 2 mps 739 mmHg 82%
    23:00 +23°C° 0.2 mm 2 mps 739 mmHg 84%

    23 July, Monday

    Time Temperature Precipitation Wind Pressure Humidity
    00:00 +23°C° 0.2 mm 2 mps 739 mmHg 85%
    01:00 +21°C° 0.1 mm 2 mps 739 mmHg 86%
    02:00 +21°C° 0.1 mm 2 mps 739 mmHg 87%
    03:00 +21°C° 0.1 mm 2 mps 739 mmHg 88%
    04:00 +21°C° 0 mm 2 mps 739 mmHg 88%
    05:00 +21°C° 0 mm 2 mps 739 mmHg 88%
    06:00 +21°C° 0 mm 2 mps 739 mmHg 88%
    07:00 +24°C° 0.7 mm 3 mps 739 mmHg 83%
    08:00 +26°C° 0.7 mm 3 mps 739 mmHg 77%
    09:00 +27°C° 0.7 mm 3 mps 739 mmHg 71%
    10:00 +28°C° 0.7 mm 3 mps 739 mmHg 67%
    11:00 +29°C° 0.7 mm 3 mps 739 mmHg 63%
    12:00 +30°C° 0.7 mm 3 mps 739 mmHg 59%
    13:00 +30°C° 0.7 mm 3 mps 739 mmHg 59%
    14:00 +30°C° 0.7 mm 3 mps 739 mmHg 59%
    15:00 +30°C° 0.7 mm 3 mps 739 mmHg 59%
    16:00 +30°C° 0.2 mm 3 mps 739 mmHg 62%
    17:00 +30°C° 0.2 mm 2 mps 739 mmHg 64%
    18:00 +30°C° 0.2 mm 2 mps 740 mmHg 67%
    19:00 +28°C° 0.2 mm 2 mps 740 mmHg 70%
    20:00 +27°C° 0.2 mm 2 mps 740 mmHg 74%
    21:00 +25°C° 0.2 mm 2 mps 740 mmHg 77%
    22:00 +24°C° 1.2 mm 2 mps 740 mmHg 81%
    23:00 +23°C° 1.2 mm 2 mps 740 mmHg 84%
    Show more